Tracking 31027 objects as of 19-Jul-2025
HD Live streaming from Space Station
objects crossing your sky now

STARLINK-3645

Track STARLINK-3645 now!
10-day predictions
STARLINK-3645 is classified as:


NORAD ID: 51986
Int'l Code: 2022-025AG
Perigee: 546.0 km
Apogee: 547.8 km
Inclination: 53.2 °
Period: 95.4 minutes
Semi major axis: 6917 km
RCS: Unknown
Launch date: March 9, 2022
Source: United States (US)
Launch site: AIR FORCE EASTERN TEST RANGE (AFETR)
Your satellite tracking list
STARLINK-1243
Track 1 satellite(s)




NASA's NSSDC Master Catalog

Two Line Element Set (TLE):
1 51986U 22025AG  25199.72529697  .00000754  00000-0  65449-4 0  9991
2 51986  53.2194   9.2740 0001307  90.1978 269.9164 15.08838844186834
Source of the keplerian elements: AFSPC